Wetbulb
44.76 44.11 44.12 44.19 44.52 45.40 45.65 46.00 46.10 46.82 48.46 49.77 51.68 53.40 54.58 58.83 60.30 60.28 59.78 59.36 59.06 58.52
42.53 41.78 41.09 41.72 42.29 42.67 43.15 42.94 43.00 43.91 44.70 46.21 47.36 48.88 49.92 52.51 53.31 55.82 58.33 58.74 59.08 58.51
40.20 39.32 39.21 39.87 39.17 39.50 40.26 40.67 40.69 41.30 42.15 43.15 44.08 45.31 46.14 47.72 49.14 50.22 52.42 52.67 53.94 56.71
37.43 36.44 36.79 36.79 36.80 36.92 37.82 38.00 38.23 38.72 39.53 40.30 41.17 42.03 43.07 44.46 46.05 43.70 44.74 45.82 45.90 46.63
34.68 34.25 33.97 33.98 34.37 35.15 34.76 36.12 36.39 36.90 37.36 38.25 39.09 39.96 40.95 40.95 40.31 40.48 40.76 41.50 42.33 42.69
31.66 31.34 31.38 31.61 32.19 32.67 32.86 33.49 34.12 34.60 35.00 35.80 36.98 38.30 38.23 37.85 37.63 37.79 38.30 39.00 39.28 39.87
29.23 29.35 29.62 30.07 30.14 30.37 30.98 31.03 31.55 32.58 33.45 34.36 35.38 36.11 35.44 35.40 35.68 36.31 37.10 38.53 39.02 39.65
28.14 28.32 28.50 28.10 28.28 29.00 29.32 29.77 30.62 31.16 32.11 32.88 33.76 33.73 33.60 33.88 33.52 33.97 35.20 37.00 37.21 38.37
26.54 26.57 26.61 26.56 26.87 27.52 27.95 28.53 29.63 30.14 30.45 30.91 32.25 31.96 31.97 31.48 30.95 33.43 33.82 33.64 34.36 35.66
24.52 24.61 24.89 25.51 25.92 25.98 26.36 27.79 28.14 28.44 29.04 29.09 30.16 30.72 30.68 29.90 30.20 30.35 31.06 30.86 30.62 30.73
23.07 23.01 23.70 24.43 24.36 24.94 25.75 26.10 26.53 26.82 27.49 27.67 28.56 29.45 28.91 28.74 28.74 28.32 28.62 28.99 28.90 29.07
21.62 21.34 22.01 22.52 22.73 23.79 24.06 24.75 24.85 25.61 25.89 25.87 26.40 27.71 27.68 27.54 26.80 26.13 26.57 27.26 27.66 27.18
20.20 20.10 20.77 21.53 21.79 22.85 23.45 23.37 23.99 24.04 25.55 25.66 24.80 25.88 26.43 26.19 25.36 23.91 23.69 24.72 25.35 26.05
18.15 18.23 20.22 20.07 20.68 21.34 21.47 21.81 22.33 22.65 24.02 24.47 24.46 23.40 25.07 25.05 23.21 22.21 22.18 21.83 22.10 22.74
MSLP
1019.59 1019.39 1019.22 1019.10 1018.82 1018.55 1018.22 1017.96 1017.79 1017.38 1016.93 1016.38 1015.79 1015.34 1015.07 1014.69 1014.27 1014.20 1014.18 1013.92 1013.73 1013.63
1020.42 1020.27 1020.08 1019.87 1019.71 1019.46 1019.12 1018.71 1018.43 1018.01 1017.48 1016.94 1016.37 1015.94 1015.65 1015.26 1014.81 1014.58 1014.16 1013.47 1013.27 1013.17
1021.10 1021.04 1020.87 1020.57 1020.41 1020.22 1019.90 1019.55 1019.13 1018.62 1018.12 1017.53 1017.09 1016.70 1016.29 1015.77 1015.29 1014.79 1014.49 1014.21 1013.91 1013.11
1021.75 1021.73 1021.46 1021.25 1021.14 1020.96 1020.55 1020.15 1019.77 1019.31 1018.76 1018.22 1017.64 1017.24 1016.83 1016.45 1015.81 1015.71 1015.31 1015.14 1015.01 1014.33
1022.28 1022.26 1022.09 1021.97 1021.85 1021.61 1021.19 1020.76 1020.34 1019.85 1019.34 1018.79 1018.30 1017.85 1017.33 1017.02 1016.78 1016.43 1015.89 1015.71 1015.41 1014.99
1022.93 1022.86 1022.70 1022.65 1022.47 1022.18 1021.86 1021.33 1020.91 1020.45 1019.92 1019.51 1019.04 1018.46 1018.36 1018.08 1017.56 1017.05 1016.72 1016.34 1016.15 1015.61
1023.51 1023.42 1023.32 1023.23 1023.00 1022.74 1022.34 1021.88 1021.46 1021.04 1020.60 1020.10 1019.49 1019.09 1018.94 1018.41 1017.90 1017.51 1017.10 1016.67 1016.22 1015.74
1023.98 1023.91 1023.79 1023.56 1023.31 1022.98 1022.66 1022.30 1021.95 1021.49 1020.95 1020.44 1019.93 1019.84 1019.59 1019.09 1018.51 1017.83 1017.08 1016.80 1016.44 1016.10
1024.28 1024.21 1024.09 1023.83 1023.47 1023.09 1022.74 1022.43 1022.04 1021.60 1021.20 1020.78 1020.43 1020.53 1020.23 1019.68 1018.86 1017.89 1017.34 1016.81 1016.58 1016.20
1024.61 1024.50 1024.40 1024.14 1023.71 1023.38 1023.07 1022.60 1022.18 1021.76 1021.39 1021.05 1020.75 1020.70 1020.49 1020.01 1019.14 1018.51 1017.91 1017.51 1017.04 1016.35
1024.74 1024.67 1024.64 1024.44 1024.08 1023.74 1023.48 1022.97 1022.45 1022.11 1021.55 1021.31 1021.08 1021.15 1020.79 1020.16 1019.52 1019.22 1018.58 1018.15 1017.60 1016.84
1024.95 1024.74 1024.58 1024.33 1024.36 1023.91 1023.57 1023.08 1022.65 1022.51 1022.04 1021.61 1021.36 1021.18 1021.03 1020.42 1019.85 1019.38 1018.82 1018.33 1017.81 1017.23
1025.30 1025.23 1024.80 1024.52 1024.44 1024.34 1023.96 1023.37 1023.00 1022.62 1022.36 1021.93 1021.88 1021.57 1021.20 1020.83 1020.29 1019.69 1019.31 1018.60 1017.78 1017.30
1025.98 1025.65 1025.26 1024.97 1024.63 1024.25 1023.94 1023.47 1023.26 1022.62 1022.36 1022.16 1021.97 1021.80 1021.39 1021.08 1020.49 1019.99 1019.13 1018.57 1017.91 1017.50
Wind_Speed
12 8 8 10 9 8 8 9 12 11 11 12 11 9 8 6 6 8 9 12 11 10
10 10 9 10 9 8 9 9 11 12 12 11 11 11 11 8 8 10 10 11 10 10
9 10 10 9 10 11 10 12 12 12 13 13 12 11 11 9 9 10 9 9 14 12
9 10 9 9 10 10 11 11 11 12 12 12 12 13 11 11 11 13 12 12 13 14
9 9 10 10 11 11 11 11 11 11 11 12 12 12 12 13 13 13 13 13 13 14
8 9 9 10 11 11 11 11 11 12 12 12 12 11 13 13 14 14 13 13 14 14
8 9 9 9 10 10 11 11 11 11 11 11 11 12 14 15 14 14 13 12 12 13
7 7 8 9 9 10 10 10 10 10 11 12 11 11 14 15 15 14 14 12 13 12
6 7 8 8 9 9 9 10 11 11 12 12 9 19 22 19 15 13 13 14 14 14
6 7 8 8 9 9 10 9 10 10 11 11 11 19 22 23 12 13 13 14 15 14
6 7 7 8 9 9 9 9 9 10 10 10 9 19 22 24 14 13 14 14 15 15
6 6 7 8 9 8 8 9 9 9 11 11 11 18 21 19 13 13 14 14 15 15
5 6 6 7 8 8 8 8 7 9 8 9 10 16 19 19 10 12 11 12 14 20
5 6 6 7 6 7 8 8 8 8 8 8 8 11 18 22 12 12 12 11 11 11
Wind_Direction
22 19 17 12 3 4 0 356 352 350 347 347 342 334 336 330 273 258 261 260 250 255
17 16 10 6 4 360 357 351 350 348 347 346 349 349 345 337 335 337 311 282 262 267
9 7 0 359 0 357 350 351 346 347 347 347 349 348 345 345 337 339 342 337 337 317
9 3 3 4 1 357 350 351 348 347 345 346 347 350 347 342 0 348 341 344 335 329
10 4 6 4 359 357 356 353 351 350 350 350 350 351 348 359 351 344 345 341 334 335
11 7 6 1 358 358 355 357 358 357 357 355 351 351 5 352 347 343 338 337 334 329
10 5 4 0 360 358 357 357 357 357 355 356 353 16 357 350 343 338 333 332 330 331
8 4 4 4 0 359 360 359 356 355 358 358 357 12 353 351 343 335 332 333 333 328
9 6 7 2 0 0 1 358 356 357 357 355 355 7 356 352 336 335 338 339 340 333
9 6 4 357 359 1 357 353 355 358 356 354 352 3 357 352 337 342 342 341 335 334
12 6 357 352 357 353 351 350 354 351 351 352 351 359 355 352 349 343 340 340 334 332
7 357 347 352 349 349 341 344 348 345 342 350 347 356 354 350 348 339 340 335 330 329
352 342 333 345 339 336 332 331 334 332 339 339 341 347 351 346 343 335 329 327 328 329
337 329 327 333 329 329 327 329 327 329 336 336 352 342 345 344 343 335 329 325 325 324